Lake Charles Regional Airport Lake Charles US
ICAO: KLCH
IATA: LCH
Category: Medium
Scheduled Services: Yes

Elevation: 15 ft
TransAlt. 18000 ft.

Airport Communications:
APP/DEP:119.35
ATIS:118.75
CLNC DEL:126.25
CTAF:120.7
GND:121.8
DE RIDDER RDO:122.3
TWR:120.7
UNICOM:122.95

KLCH Zoom In..

Runways:

(A) RW 05 length 5200 ft width 100 ft
---- / hdg 49

(B) RW 15 length 6500 ft width 150 ft
ILS 109.10 / hdg 152

(C) RW 23 length 5200 ft width 100 ft
---- / hdg 229

(D) RW 33 length 6500 ft width 150 ft
---- / hdg 332

Location; KLCH
Day. 19 / Time. 20.53 Zulu
* Altimeter: 29.92
* Temperature: 34° c. 93.2°f.
* Wind from: 250° Speed 06 kn.
Dewpoint: 22° c.
Visibility: 10 Statute Miles.
Clouds: Clear (automated report).

KLCH 192053Z 25006KT 10SM CLR 34/22 A2992 RMK AO2 SLP138 T03440217 56014


Wind From 250°
Speed 06 kn.

 
 
jpsmedia.com for Web Design worldairports.se 2018   terms of use